www.pogodaiklimat.ru

Погода и климат >> Архив погоды >> Сирия >> Аэропорт Басиля Эль-Асада


ПОГОДА в Аэропорту Басиля Эль-Асада

  • Прогноз погоды в Аэропорту Басиля Эль-Асада
  • Монитор погоды в Аэропорту Басиля Эль-Асада

АРХИВ ПОГОДЫ в Аэропорту Басиля Эль-Асада

Время (UTC), дата Ветер
(напр.,м/с)
 
Видим.   Явления Облачность Т
(С)
Тd
(С)
f
(%)
Тe
(С)
Тes
(С)
Комфортность P
(гПа)
Po
(гПа)
Тmin
(С)
Tmax
(С)
R
(мм)
R24
(мм)
S
(см)
06 12.08 Ю 4 10 км ясно +29.0 +23.0 70 +39 +44 очень
душно
1006.1 1000.4 +22.2
09 12.08 З 4 10 км ясно +30.6 +20.2 54 +37 +50 очень
душно
1006.3 1000.7
12 12.08 З 2 10 км ясно +31.8 +22.2 57 +41 +54 опасность
перегрева
1006.3 1000.7
15 12.08 ЮЗ 2 10 км ясно +29.6 +23.9 71 +41 +42 опасность
перегрева
1005.1 999.4
18 12.08 ЮВ 2 10 км 4/4 900 м
[Sc diur, vesp]
+27.0 +22.1 75 +35 +35 очень
душно
1005.1 999.4 +31.8
00 13.08 СВ 1 10 км ясно +23.5 +19.7 79 +29 +29 душно 1005.4 999.6
03 13.08 СВ 2 10 км ясно +22.6 +17.8 74 +28 +28 душно 1005.4 999.6
06 13.08 10 км н/о +29.0 +21.2 63 +37 +40 очень
душно
1005.8 1000.1 +22.4
09 13.08 ЮВ 3 10 км 5/5 900 м
[Sc diur, vesp]
+31.2 +24.4 67 +43 +51 опасность
перегрева
1005.4 999.8
12 13.08 ЮЗ 4 10 км 3/3 900 м
[Sc diur, vesp]
+31.0 +23.3 64 +42 +48 опасность
перегрева
1005.2 999.6
15 13.08 ЮЗ 3 10 км 3/3 900 м
[Sc diur, vesp]
+30.0 +24.3 72 +42 +43 опасность
перегрева
1004.7 999.1
18 13.08 Ю 2 10 км 4/4 600 м
[Sc diur, vesp]
+27.8 +23.8 79 +38 +38 очень
душно
1005.7 1000.0 +31.4
21 13.08 ЮВ 2 10 км ясно +26.0 +23.4 86 +35 +35 очень
душно
1006.2 1000.5
00 14.08 В 2 10 км ясно +23.8 +20.5 82 +30 +30 очень
душно
1005.6 999.8
03 14.08 В 2 10 км 3/3 900 м
[Sc diur, vesp]
+23.2 +18.8 76 +29 +29 душно 1005.6 999.8
06 14.08 ЮВ 4 10 км 5/3 900 м
[Sc diur, vesp Ac trans]
+29.6 +22.0 64 +38 +41 очень
душно
1006.6 1000.9 +23.0
09 14.08 ЮЗ 5 10 км 4/4 900 м
[Sc diur, vesp]
+30.6 +24.1 68 +42 +48 опасность
перегрева
1006.7 1001.1
12 14.08 ЮЗ 4 10 км 5/5 900 м
[Sc diur, vesp]
+31.0 +23.9 66 +43 +47 опасность
перегрева
1006.6 1001.0
15 14.08 ЮЗ 5 10 км 4/4 900 м
[Sc diur, vesp]
+29.8 +22.9 67 +40 +40 очень
душно
1006.6 1000.9
18 14.08 Ю 3 10 км 3/3 900 м
[Sc diur, vesp]
+27.4 +22.4 74 +36 +36 очень
душно
1007.1 1001.4 +31.2
21 14.08 ЮВ 2 10 км 4/4 900 м
[Sc diur, vesp]
+26.4 +22.2 78 +34 +34 очень
душно
1007.3 1001.6
00 15.08 ЮВ 2 10 км 4/4 900 м
[Sc diur, vesp]
+25.2 +21.3 79 +32 +32 очень
душно
1006.9 1001.1
03 15.08 ЮВ 2 10 км 4/4 900 м
[Sc diur, vesp]
+24.6 +21.3 82 +31 +31 очень
душно
1006.9 1001.1
09 15.08 ЮЗ 5 10 км 4/4 900 м
[Sc diur, vesp]
+30.8 +22.3 61 +40 +46 очень
душно
1008.1 1002.4
12 15.08 ЮЗ 5 10 км 4/4 900 м
[Sc diur, vesp]
+30.4 +23.2 65 +41 +45 опасность
перегрева
1008.2 1002.5
15 15.08 ЮЗ 4 10 км 5/5 900 м
[Sc diur, vesp]
+29.6 +23.6 70 +40 +41 очень
душно
1007.9 1002.2
18 15.08 Ю 3 10 км 1/1 900 м
[Sc diur, vesp]
+26.4 +22.0 77 +34 +34 очень
душно
1008.0 1002.3 +31.4
21 15.08 В 2 15 км ясно +22.6 +18.8 79 +28 +28 душно 1008.4 1002.6
09 16.08 ЮЗ 5 10 км 5/5 800 м
[Cu Sc]
+30.4 +20.7 56 +37 +42 очень
душно
1008.5 1002.8
12 16.08 ЮЗ 4 10 км 6/6 800 м
[Cu Sc]
+31.0 +20.8 55 +38 +42 очень
душно
1008.0 1002.4
15 16.08 ЮЗ 2 10 км 3/3 900 м
[Sc diur, vesp]
+29.6 +21.4 61 +37 +38 очень
душно
1007.5 1001.8
18 16.08 Ю 3 10 км 4/4 900 м
[Sc diur, vesp]
+26.4 +22.0 77 +34 +34 очень
душно
1007.8 1002.1 +31.0
21 16.08 н/о
03 17.08 В 3 10 км 4/4 900 м
[Sc diur, vesp]
+24.4 +19.2 73 +29 +29 душно 1007.5 1001.7
09 17.08 Ю 60 10 км 6/6 800 м
[Cu Sc]
+29.8 +22.1 63 +38 +38 очень
душно
1002.3 996.7
12 17.08 ЮЗ 60 10 км 6/6 800 м
[Cu Sc]
+30.8 +22.2 60 +40 +40 очень
душно
1007.0 1001.4
15 17.08 ЮЗ 5 10 км 6/6 800 м
[Cu Sc]
+29.5 +21.8 63 +38 +38 очень
душно
1006.1 1000.4
18 17.08 ЮЗ 4 10 км 6/6 800 м
[Cu Sc]
+27.8 +22.5 73 +37 +37 очень
душно
1006.1 1000.4 +30.8
00 18.08 ЮВ 3 10 км 6/6 800 м
[Cu Sc]
+25.6 +20.4 73 +32 +32 очень
душно
1006.0 1000.3
06 18.08 Ю 5 8000 м 6/6 800 м
[Cu Sc]
+28.2 +21.4 67 +36 +38 очень
душно
1005.5 999.8 +25.4
09 18.08 ЮЗ 6 10 км 8/8 800 м
[Cu Sc]
+30.2 +23.0 65 +40 +41 очень
душно
1006.3 1000.6
12 18.08 ЮЗ 6 10 км 6/6 800 м
[Cu Sc]
+30.4 +23.2 65 +41 +43 опасность
перегрева
1006.5 1000.9
15 18.08 ЮЗ 4 10 км 6/6 800 м
[Cu Sc]
+29.2 +22.6 68 +39 +39 очень
душно
1006.5 1000.8
18 18.08 ЮВ 2 10 км 5/5 900 м
[Sc diur, vesp]
+26.6 +22.5 78 +35 +35 очень
душно
1006.3 1000.6 +31.4
21 18.08 н/о
00 19.08 В 2 10 км 5/5 900 м
[Sc diur, vesp]
+23.8 +19.5 77 +29 +29 душно 1006.3 1000.5
03 19.08 В 2 10 км 5/5 900 м
[Sc diur, vesp]
+22.4 +18.0 76 +27 +27 душно 1006.9 1001.1

 

Местоположение метеостанции Аэропорт Басиля Эль-Асада (Сирия): широта 35.40 долгота 35.93 высота над уровнем моря 50 м.

В архиве по умолчанию представлена погода в Аэропорту Басиля Эль-Асада за последнюю неделю. Архивные данные за месяц целиком и за предыдущие месяцы, начиная с января 2011 года, Вы можете получить, выбрав интересующий диапазон дат из раскрывающегося списка и нажав кнопку "Ввод!".


*Определитесь, кто Вы:
робот инопланетянин человек

Внимание! Время в таблицах - всемирное. Для получения местного времени необходимо прибавить поправку, которая равна 2 ч.

Смотрите также архив погоды в соседних городах и на ближайших метеорологических станциях:

Погода в Латакии (Сирия) (20 км)
Погода в Сафире (Сирия) (67 км)
Погода в Хаме (Сирия) (81 км)
Погода в Триполи (Ливан) (107 км)
Погода в Искендеруне (Турция) (133 км)
Погода в Ризокарпасо (Кипр) (142 км)
Погода в Алеппо (Сирия) (144 км)
Погода в Эн-Набке (Сирия) (169 км)
Погода в Гиалусе (Кипр) (174 км)
Погода в Хоуч-аль-Омаре (Ливан) (176 км)

Пояснения к столбцам:

Ветер - указаны скорость ветра в м/с - средняя за 10 мин, порывы в срок и между сроками (в фигурных скобках) и направление, откуда дует ветер: С - северный, СВ - северо-восточный, В - восточный, ЮВ - юго-восточный, Ю - южный, ЮЗ - юго-западный, З - западный, СЗ - северо-западный.
Видимость - горизонтальная дальность видимости в метрах или километрах. При видимости от 1 до 10 км при отсутствии осадков обычно наблюдается дымка, при ухудшении видимости до 1 км и менее - туман. В сухую погоду видимость может ухудшаться дымом, пылью или мглою.
Явления - указаны атмосферные явления, наблюдавшиеся в срок или в последний час перед сроком; фигурными скобками обозначены явления, наблюдавшиеся между сроками (за 1-3 часа до срока); квадратными скобками обозначены град или гололедные отложения с указанием их диаметра в мм.
Облачность - указаны через наклонную черту общая и нижняя облачность в баллах и высота нижней границы облаков в метрах; квадратными скобками обозначены формы облаков: Ci - перистые, Cs - перисто-слоистые, Cc - перисто-кучевые, Ac - высококучевые, As - высокослоистые, Sc - слоисто-кучевые, Ns - слоисто-дождевые, Cu - кучевые, Cb - кучево-дождевые. Подробнее классификацию облаков см. в Атласе облаков (PDF).
T - Температура воздуха - температура, измеренная на высоте 2 м над землей.
Td - Температура точки росы - температура, при понижении до которой содержащийся в воздухе водяной пар достигнет насыщения.
f - Относительная влажность воздуха - влажноcть воздуха, измеренная на высоте 2 м над землей.
Te - Эффективная температура - температура, которую ощущает одетый по сезону человек в тени. Характеристика душности погоды. При расчете учитывается влияние влажности воздуха и скорости ветра на теплоощущения человека.
Tes - Эффективная температура на солнце - температура, которую ощущает человек, с поправкой на солнечный нагрев. Характеристика знойности погоды. Зависит от высоты солнца над горизонтом, облачности и скорости ветра. Ночью, в пасмурную погоду, а также при ветре 12 м/с и более поправка равна нулю.
P - Атмосферное давление - приведенное к уровню моря атмосферное давление.
Po - Атмосферное давление - измеренное на уровне метеостанции атмосферное давление.
Tmin - Минимальная температура - минимум температуры воздуха на высоте 2 м над землей.
Tmax - Максимальная температура - максимум температуры воздуха на высоте 2 м над землей.
R - Количество осадков - Количество выпавших осадков за период времени, мм. При наведении курсора мыши на число - период времени, за который выпало указанное количество осадков.
R24 - Количество осадков - Количество выпавших осадков за 24 часа, мм.
S - Снежный покров - Высота снежного покрова, см. При наведении курсора мыши на число - состояние снежного покрова и степень покрытия местности в баллах.